Wetbulb
51.24 51.33 51.19 50.89 50.95 50.69 50.16 49.56 49.06 48.56 48.74 48.47 48.20 47.72 47.15 47.21 46.18 45.31 45.21 45.13 45.22 45.89 45.84 45.96 46.57 46.50 45.97 45.92 45.48 46.80 47.34 45.84
51.14 50.47 49.91 49.85 50.13 49.72 49.30 48.68 48.26 49.18 49.08 48.36 47.77 46.04 45.98 45.30 44.60 43.96 43.59 43.75 43.94 44.09 44.27 44.23 44.92 44.62 44.24 44.37 44.15 44.72 45.73 45.60
49.32 48.89 49.08 49.34 48.63 48.03 47.99 47.78 47.74 48.76 50.12 47.70 47.49 46.24 44.55 44.71 44.25 42.95 42.38 41.94 42.28 42.13 42.27 42.62 43.35 43.22 43.29 42.95 42.38 42.10 43.64 44.58
48.03 47.58 48.12 48.20 47.42 47.18 46.54 46.78 46.60 46.44 46.50 45.65 44.70 44.33 44.56 44.47 43.10 42.20 40.11 40.36 40.31 41.02 41.06 41.59 41.84 42.14 41.01 41.40 41.15 40.92 39.89 42.83
48.91 47.65 47.05 47.63 46.79 46.57 46.24 45.90 45.66 45.29 44.44 44.54 43.32 44.12 42.78 41.44 41.43 40.50 39.50 39.04 39.01 39.66 40.13 40.54 40.78 41.03 40.64 40.69 40.99 40.94 39.82 38.44
48.15 47.09 47.23 47.34 45.73 45.14 44.51 43.77 42.46 41.82 41.91 41.50 41.54 40.34 40.34 40.66 40.07 37.99 38.14 38.40 38.05 38.25 39.07 39.38 39.27 39.69 39.85 39.80 40.13 39.63 38.70 36.66
47.93 47.70 47.87 45.53 45.04 44.28 44.01 42.98 41.14 40.19 39.21 38.74 39.08 39.21 38.47 38.84 38.68 39.01 38.19 38.32 38.42 37.80 37.87 38.07 38.12 38.16 38.11 38.68 39.39 38.76 37.06 36.59
47.04 46.77 46.16 45.50 44.55 44.10 43.22 41.89 39.26 38.45 37.62 37.22 37.94 38.10 38.28 37.45 37.83 38.20 37.36 37.36 36.88 36.20 37.03 36.78 36.73 36.68 36.93 37.68 37.88 37.57 36.77 35.02
47.00 47.47 47.02 45.66 44.68 44.32 42.96 41.64 39.66 38.15 37.32 37.01 37.75 37.70 38.51 38.07 37.11 37.31 36.97 36.24 35.73 36.18 35.87 35.91 35.81 36.04 36.69 37.05 36.81 36.85 37.77 37.44
47.17 47.63 47.29 45.78 45.21 44.23 43.60 41.80 39.24 37.93 37.52 37.47 37.26 37.53 36.99 36.34 36.50 36.55 36.24 35.95 34.58 35.27 35.33 35.08 35.19 35.61 35.86 36.31 35.74 35.98 36.58 36.65
47.15 47.19 46.26 45.86 45.74 44.81 43.75 42.11 38.25 37.90 37.78 37.85 37.18 36.67 36.63 36.70 36.89 35.57 35.23 35.15 34.70 34.43 34.56 34.54 34.23 34.66 34.98 35.08 35.11 35.16 34.82 35.09
46.67 46.71 45.81 45.90 42.58 44.11 42.50 40.79 36.63 37.28 37.64 37.15 36.68 36.14 36.12 36.33 35.78 35.53 35.02 34.51 33.93 33.53 33.51 33.01 32.40 32.34 33.39 32.78 32.13 32.36 32.60 32.46
37.83 45.81 45.22 41.27 42.13 42.95 41.72 40.54 36.67 35.04 37.76 37.11 36.30 34.14 35.99 34.79 34.13 34.34 34.45 33.60 33.19 32.52 32.49 31.67 30.88 30.50 29.74 30.56 30.24 29.15 28.72 29.60
41.30 43.53 41.07 36.19 41.77 40.32 40.76 39.56 37.75 36.03 36.17 34.98 35.35 32.87 31.19 31.38 31.18 31.99 32.12 31.82 30.73 30.14 29.20 28.67 28.54 28.71 28.33 28.33 28.54 28.70 27.82 27.69
44.03 41.32 40.09 36.56 38.82 39.17 38.78 36.96 38.04 36.52 35.55 34.81 31.35 33.47 32.40 31.43 31.24 32.44 31.74 31.92 29.71 29.27 29.41 28.83 28.61 28.89 29.45 28.82 28.80 28.53 27.99 27.62
46.20 43.59 41.93 38.56 38.50 39.24 38.81 37.58 36.59 36.57 35.65 35.73 33.64 34.48 33.72 32.83 32.36 32.66 33.55 33.17 31.15 29.48 29.39 31.11 31.93 31.21 30.74 31.47 30.07 28.62 29.03 28.30
45.41 45.68 43.88 40.49 38.95 39.89 39.17 37.48 36.67 36.76 35.07 34.65 35.88 34.87 33.97 32.42 32.54 32.78 32.90 32.67 32.78 32.74 32.69 31.92 30.53 30.16 26.93 27.07 30.90 30.34 29.19 28.90
45.53 45.22 43.84 41.70 40.86 41.15 39.47 37.86 37.21 34.93 34.38 35.62 34.86 34.44 33.09 32.12 32.34 32.28 32.06 32.33 33.03 32.46 32.34 32.86 32.12 30.30 26.66 26.24 27.61 31.69 30.89 29.88
44.64 43.70 42.68 42.29 42.00 41.43 40.69 38.29 35.33 34.24 33.71 33.56 34.47 33.55 32.43 32.01 31.98 32.11 32.35 32.70 32.33 32.29 32.08 32.55 31.77 28.80 25.97 25.20 26.72 31.79 31.11 30.26
MSLP
1015.52 1016.36 1017.07 1017.67 1018.47 1019.06 1019.49 1019.98 1020.56 1020.92 1020.92 1021.17 1021.30 1021.47 1021.72 1021.93 1022.21 1022.54 1022.66 1022.62 1022.40 1021.92 1021.74 1021.71 1021.22 1020.82 1020.46 1020.20 1019.89 1019.24 1018.26 1017.73
1015.45 1016.44 1017.28 1017.97 1018.66 1019.01 1019.52 1020.16 1020.59 1020.61 1020.67 1020.84 1021.15 1021.46 1021.97 1022.35 1022.62 1023.04 1023.11 1023.19 1022.98 1022.61 1022.20 1022.08 1021.64 1021.21 1021.17 1020.78 1020.38 1019.61 1018.52 1018.16
1015.58 1016.62 1017.42 1017.97 1018.59 1019.22 1019.53 1019.83 1020.35 1020.80 1020.93 1021.28 1021.69 1022.03 1022.47 1022.72 1022.86 1023.24 1023.47 1023.50 1023.39 1023.04 1022.78 1022.39 1022.14 1021.57 1021.69 1021.49 1021.12 1020.37 1019.40 1019.16
1015.43 1016.67 1017.47 1018.20 1018.68 1019.28 1019.74 1020.19 1020.61 1020.92 1021.32 1021.87 1022.21 1022.69 1022.74 1022.68 1023.00 1023.19 1023.84 1023.85 1023.78 1023.68 1023.37 1023.01 1022.76 1022.32 1022.10 1022.04 1021.89 1021.37 1020.38 1019.72
1014.63 1016.04 1017.13 1017.75 1018.63 1019.43 1019.99 1020.45 1020.96 1021.44 1021.65 1021.76 1021.96 1021.88 1022.28 1023.04 1023.41 1023.81 1023.76 1024.18 1024.22 1024.09 1023.84 1023.41 1023.04 1022.73 1022.69 1022.49 1022.15 1021.97 1021.49 1020.81
1014.23 1015.79 1016.89 1017.77 1018.92 1019.58 1020.22 1020.81 1021.43 1021.94 1022.03 1022.11 1022.16 1022.48 1022.95 1023.39 1023.52 1023.76 1023.87 1024.39 1024.66 1024.15 1023.78 1023.50 1023.35 1023.03 1023.28 1023.10 1022.75 1022.56 1022.49 1022.33
1014.43 1015.83 1016.74 1018.04 1019.15 1019.75 1020.24 1020.82 1021.63 1022.29 1022.39 1022.53 1022.70 1022.93 1023.30 1023.31 1023.82 1023.61 1023.73 1024.04 1024.17 1024.18 1023.72 1023.86 1023.81 1023.66 1023.77 1023.49 1023.40 1023.38 1023.26 1022.98
1014.11 1015.16 1016.40 1017.48 1018.63 1019.49 1020.21 1020.90 1021.78 1022.29 1022.86 1023.06 1023.29 1023.46 1023.65 1023.82 1023.85 1023.87 1023.72 1023.82 1024.15 1024.45 1023.93 1024.34 1024.22 1024.49 1024.35 1024.14 1023.90 1023.52 1023.28 1023.41
1013.91 1014.83 1015.83 1017.12 1018.44 1019.29 1020.02 1020.61 1021.65 1022.26 1023.12 1023.28 1023.52 1023.81 1023.90 1024.12 1024.31 1024.18 1024.17 1024.21 1024.66 1024.76 1024.72 1025.11 1025.17 1024.95 1024.58 1024.39 1023.84 1023.49 1023.35 1023.30
1013.45 1014.56 1015.73 1016.95 1018.21 1018.95 1019.79 1020.45 1021.73 1022.45 1023.11 1023.50 1023.82 1024.07 1024.18 1024.55 1024.59 1024.64 1024.44 1024.79 1025.22 1025.34 1025.48 1025.56 1025.48 1025.15 1024.86 1024.43 1024.15 1023.83 1023.63 1023.67
1013.39 1014.47 1015.80 1016.87 1017.87 1018.83 1019.83 1020.83 1021.97 1022.60 1023.25 1023.50 1023.82 1024.33 1024.69 1024.80 1024.73 1024.78 1024.97 1025.53 1025.73 1025.81 1025.86 1025.80 1025.59 1025.39 1025.21 1024.92 1024.71 1024.65 1024.44 1024.33
1013.64 1014.49 1015.83 1016.88 1018.30 1018.85 1020.00 1021.06 1022.24 1022.74 1023.16 1023.65 1024.17 1024.69 1024.95 1024.93 1025.07 1025.39 1025.86 1026.12 1026.23 1026.21 1026.21 1026.14 1026.18 1026.24 1026.04 1026.03 1026.09 1025.82 1025.45 1025.44
1014.27 1014.99 1015.90 1017.09 1018.07 1018.75 1019.96 1020.97 1022.14 1023.27 1023.57 1023.95 1024.53 1025.31 1025.25 1025.39 1025.84 1026.28 1026.64 1026.68 1026.68 1026.67 1026.62 1026.77 1027.13 1027.20 1027.48 1027.06 1026.96 1027.20 1026.94 1026.45
1014.11 1014.97 1015.96 1017.20 1017.84 1018.94 1019.61 1020.64 1021.57 1022.79 1023.67 1024.43 1024.73 1025.46 1026.03 1026.28 1026.75 1027.10 1027.43 1027.39 1027.66 1027.76 1027.97 1027.92 1028.08 1028.14 1028.15 1028.32 1028.18 1027.86 1027.71 1027.43
1012.65 1014.27 1015.58 1016.84 1017.42 1018.60 1019.49 1020.77 1021.34 1022.20 1023.35 1024.14 1025.25 1025.44 1025.68 1026.28 1026.73 1026.84 1027.33 1027.41 1027.94 1028.24 1028.43 1028.58 1028.54 1028.62 1028.65 1028.68 1028.60 1028.22 1028.00 1027.90
1010.66 1012.35 1013.91 1015.80 1017.00 1017.92 1019.04 1020.16 1021.05 1021.81 1022.74 1023.41 1024.50 1025.09 1025.32 1025.62 1026.09 1026.45 1026.57 1026.81 1027.57 1028.42 1028.55 1028.56 1028.58 1028.71 1028.58 1027.96 1028.08 1028.21 1028.01 1027.99
1009.32 1010.69 1011.99 1013.83 1015.35 1016.50 1017.90 1019.12 1020.17 1021.19 1022.28 1023.12 1023.65 1024.55 1024.94 1025.23 1025.61 1025.99 1026.29 1026.55 1026.83 1027.07 1027.54 1028.05 1028.37 1028.41 1029.15 1028.77 1027.68 1027.84 1028.06 1027.89
1008.37 1009.59 1011.03 1012.80 1014.24 1015.53 1016.91 1018.28 1019.72 1021.15 1022.11 1022.60 1023.35 1024.07 1024.42 1024.97 1025.42 1025.82 1026.11 1026.38 1026.79 1027.10 1027.42 1027.60 1027.93 1028.56 1029.27 1029.07 1028.40 1027.61 1027.67 1027.80
1008.62 1009.72 1011.15 1012.48 1013.85 1015.26 1016.64 1018.07 1019.70 1020.82 1021.59 1022.40 1023.03 1023.56 1024.06 1024.71 1025.19 1025.54 1025.99 1026.42 1026.75 1027.09 1027.45 1027.65 1028.00 1028.85 1029.42 1029.27 1028.66 1027.81 1027.91 1028.08
Wind_Speed
14 13 11 11 10 9 9 7 8 8 6 6 5 5 6 6 6 7 9 8 9 7 6 8 7 7 7 9 10 10 9 11
15 13 12 11 9 9 8 8 7 4 4 4 4 5 5 5 6 8 8 8 9 9 6 7 7 8 10 11 9 11 9 12
14 13 12 10 9 8 8 8 6 3 3 4 3 3 5 5 5 7 8 8 9 7 8 7 9 7 10 11 12 9 7 10
16 14 12 10 10 9 8 8 8 6 6 5 5 4 3 3 4 4 7 8 8 8 9 8 7 7 7 9 10 12 9 9
17 16 14 13 11 9 9 8 8 7 5 4 3 1 2 4 4 5 5 8 8 8 7 7 7 6 8 8 9 9 10 10
17 16 15 13 11 10 8 8 7 6 7 5 4 4 4 3 4 4 6 6 7 7 8 9 9 7 8 9 9 10 8 8
14 15 14 12 11 10 9 9 8 6 6 6 6 6 5 4 4 3 4 4 5 8 9 8 9 8 8 7 7 9 9 8
16 18 16 15 13 11 10 10 9 8 7 7 6 6 6 6 4 4 5 5 5 8 9 9 7 8 7 6 7 7 9 8
16 18 16 14 13 12 11 10 9 9 8 8 7 6 4 4 5 4 5 6 6 8 8 7 7 7 7 7 6 7 8 7
16 17 15 14 14 13 11 11 10 9 8 7 7 6 6 6 7 5 6 7 6 7 7 7 7 8 8 8 8 9 9 9
15 15 15 14 14 13 12 11 11 10 9 8 7 7 6 6 7 8 8 7 6 7 7 8 8 9 10 10 8 10 10 8
13 15 15 14 8 13 13 12 6 9 9 8 8 7 7 7 7 7 6 7 6 7 8 9 10 10 10 10 11 11 11 11
7 13 14 9 16 15 14 13 14 5 4 10 8 7 5 8 7 7 6 7 7 8 9 10 10 10 10 10 10 9 10 11
14 15 12 13 17 13 14 14 14 14 12 9 9 9 8 8 8 7 7 7 8 9 9 9 9 8 9 8 8 9 9 10
16 15 15 14 13 15 14 12 13 14 13 12 9 7 10 10 8 8 7 8 8 7 7 7 7 7 6 7 7 7 9 9
15 18 18 18 17 17 16 16 15 14 14 13 13 10 9 10 10 8 8 9 9 7 7 5 5 6 4 4 9 8 8 9
15 17 19 21 21 20 18 17 16 16 14 12 13 11 10 9 9 8 8 8 8 8 8 8 6 6 8 7 6 8 8 9
11 15 16 17 19 19 19 18 17 15 14 13 13 12 11 10 10 9 9 8 8 8 7 7 8 9 8 6 6 7 8 8
6 9 12 14 17 19 18 18 18 17 15 14 14 13 12 11 11 10 9 8 8 7 7 7 8 8 7 3 5 7 7 9
Wind_Direction
164 157 144 137 133 131 128 121 117 111 110 107 100 90 80 67 58 52 36 38 30 20 31 19 3 13 10 5 356 351 347 345
164 156 149 143 138 135 127 123 125 133 123 110 99 85 83 77 71 49 42 33 26 26 21 17 9 21 11 9 356 353 358 357
168 163 156 154 136 125 130 127 128 124 128 97 69 89 69 65 65 60 41 34 30 28 18 21 21 13 14 10 5 353 360 13
175 172 164 152 147 140 133 126 125 110 115 125 112 112 140 130 72 62 49 39 37 27 30 25 22 17 18 12 7 9 355 12
178 177 170 166 150 141 141 134 130 127 143 139 165 55 132 72 64 56 64 44 39 35 36 33 33 30 20 16 16 8 10 13
182 180 180 160 150 144 130 122 116 125 120 109 124 117 105 103 99 95 72 68 48 46 38 38 33 32 23 20 19 19 27 15
183 183 167 152 153 146 140 134 115 95 98 100 102 115 127 116 93 98 85 69 51 41 46 38 35 29 23 20 17 28 32 24
183 183 177 165 163 155 147 143 136 119 103 103 112 110 105 110 114 79 71 65 49 44 40 35 32 29 29 18 22 30 36 26
193 187 181 169 167 165 153 149 137 125 132 124 122 130 111 104 82 84 72 62 51 43 49 42 38 35 32 27 33 34 29 34
189 184 182 172 176 167 161 150 140 148 141 136 127 120 110 106 104 93 79 66 66 60 57 55 48 45 37 37 40 32 31 27
186 184 180 182 178 164 159 154 154 159 154 140 126 121 127 120 103 86 78 82 74 75 68 56 53 47 41 41 39 37 36 32
192 185 181 183 159 168 164 161 148 160 155 142 141 134 127 113 99 92 92 87 81 73 67 64 54 48 42 52 44 29 42 32
202 191 184 160 180 174 172 166 160 145 148 148 136 111 104 108 103 102 85 84 79 74 70 67 58 52 49 38 54 48 38 38
186 188 182 173 184 171 176 169 163 164 154 153 142 125 119 116 119 127 109 94 78 71 65 67 65 61 60 53 47 51 51 42
193 196 187 183 186 176 170 163 166 164 157 155 138 165 143 137 134 135 123 110 104 94 89 84 77 74 63 69 57 57 54 47
208 195 193 184 181 177 172 168 165 163 164 164 162 168 150 140 142 142 137 133 116 121 109 101 109 80 49 83 81 57 58 60
219 206 190 186 186 182 174 168 166 163 167 167 164 163 157 148 146 145 141 133 133 136 128 122 107 78 66 31 46 85 62 50
227 206 195 185 185 180 175 166 158 161 166 170 163 164 155 153 149 149 144 137 138 132 131 125 109 96 77 58 348 67 62 61
195 183 180 177 175 175 168 159 163 165 169 167 167 163 159 157 159 154 147 148 145 141 135 131 112 95 97 67 319 79 73 64